Location: Newark
(42.1211°N, 12.2319°E)
Time: 20:52:06
(UTC+00:00)

Envisat - Visible Passes

Search period start: 08 December 2019 00:00
Search period end: 18 December 2019 00:00
Orbit: 764 x 766 km, 98.1° (Epoch: 08 December)

Date Brightness Start Highest point End Pass type
(mag) Time Alt. Az. Time Alt. Az. Time Alt. Az.
08 Dec 3.0 17:11:03 10° SSE 17:16:07 83° WSW 17:21:14 10° NNW visible
09 Dec 5.0 05:19:49 10° NNE 05:24:24 33° E 05:28:56 10° SSE visible
09 Dec 3.3 16:34:38 10° SE 16:39:27 45° ENE 16:44:17 10° N visible
09 Dec 5.4 18:14:49 10° SW 18:18:40 22° W 18:22:33 10° NW visible
10 Dec 6.0 04:44:25 10° NE 04:47:17 15° E 04:50:09 10° SE visible
10 Dec 4.0 17:36:47 10° S 17:41:39 47° W 17:46:34 10° NNW visible
11 Dec 3.8 05:44:58 10° NNE 05:49:59 58° E 05:54:59 10° S visible
11 Dec 2.9 16:59:47 10° SSE 17:04:51 79° ENE 17:09:57 10° N visible
11 Dec 6.1 18:42:29 10° WSW 18:44:27 12° W 18:46:25 10° WNW visible
12 Dec 5.4 05:08:47 10° NE 05:13:02 26° E 05:17:15 10° SSE visible
12 Dec 3.5 16:23:38 10° SE 16:28:14 36° ENE 16:32:52 10° N visible
12 Dec 5.0 18:03:01 10° SSW 18:07:18 27° W 18:11:36 10° NW visible
13 Dec 6.2 04:34:10 10° ENE 04:35:52 12° E 04:37:34 10° ESE visible
13 Dec 3.5 17:25:21 10° S 17:30:21 60° W 17:35:23 10° NNW visible
14 Dec 4.3 05:33:47 10° NNE 05:38:40 45° E 05:43:32 10° S visible
14 Dec 3.0 16:48:36 10° SSE 16:53:36 62° ENE 16:58:37 10° N visible
14 Dec 5.8 18:30:02 10° SW 18:33:02 16° W 18:36:03 10° NW visible
15 Dec 5.7 04:57:51 10° NE 05:01:40 21° E 05:05:26 10° SE visible
15 Dec 3.8 16:12:42 10° SE 16:17:02 29° ENE 16:21:23 10° N visible
15 Dec 4.6 17:51:22 10° SSW 17:55:57 34° W 18:00:34 10° NNW visible
16 Dec 3.2 05:59:06 10° NNE 06:04:13 80° ESE 06:09:18 10° S visible
16 Dec 3.1 17:13:59 10° S 17:19:03 76° WSW 17:24:09 10° NNW visible
17 Dec 4.8 05:22:40 10° NNE 05:27:20 36° E 05:31:59 10° SSE visible
17 Dec 3.2 16:37:29 10° SE 16:42:21 49° ENE 16:47:15 10° N visible
17 Dec 5.5 18:17:59 10° SW 18:21:38 20° W 18:25:19 10° NW visible
